{"data":{"norad_id":44873,"epoch":"2026-05-25T03:58:01.858656Z","epoch_age_seconds":50883,"freshness":"FRESH","line1":"1 44873U 19092A   26145.16529929  .00000361  00000+0  51932-4 0  9991","line2":"2 44873  97.8887 329.1014 0001411  94.0091 266.1284 14.82160348348062","mean_motion":14.82160348,"eccentricity":0.0001411,"inclination_deg":97.8887,"raan_deg":329.1014,"arg_perigee_deg":94.0091,"mean_anomaly_deg":266.1284,"bstar":5.1932e-5,"rev_number":34806,"period_min":97.155479968352,"perigee_km":621.52545841768,"apogee_km":623.50104191827,"semimajor_km":7000.650250168,"source":"CELESTRAK","updated_at":"2026-05-25T13:38:12.832893Z"}}